Flag for U.S.A. Weather past 2 weeks in Atascadero, California, U.S.A.

Now
79 °F

Sunny.


Feels Like: 78 °F
Forecast: 49 / 78 °F
Wind: 12 mph from Northwest

Location: Paso Robles Municipal Airport

Current Time: Apr 26, 2015 at 6:01:47 PM

Latest Report: Apr 26, 2015 at 4:53 PM


Visibility: 10 mi

Pressure: 29.97 "Hg

Humidity: 23%

Dew point: 38 °F

Location of AtascaderoLocation

Historic Weather in Atascadero — Graph

°F

Atascadero temperature yesterday

Maximum temperature yesterday: 71 °F (at 4:53 PM)
Minimum temperature yesterday: 50 °F (at 1:53 AM)
Average temperature yesterday: 58 °F

Past Weeks' High & Low Weather Summary

 TemperatureHumidityPressure
High86 °F (Apr 18, 2:53 PM)93% (Apr 19, 7:53 AM)30.24 "Hg (Apr 19, 7:53 AM)
Low36 °F (Apr 15, 6:53 AM)4% (Apr 14, 4:53 PM)29.78 "Hg (Apr 20, 4:53 PM)
Average59 °F53%29.97 "Hg
* Reported Apr 11 4:53 PM — Apr 26 4:53 PM, Atascadero, Weather by CustomWeather, © 2015

Note: Actual official high and low records may vary slightly from our data, if they occured in-between our weather recording intervals... More about our weather records

Advertising

Atascadero weather history for previous 24 hours

 ConditionsComfort  
Time TempWeatherWind HumidityBarometerVisibility
4:53 PM
Sun, Apr 26
79 °FSunny.12 mph23%29.97 "Hg10 mi
3:53 PM77 °FSunny.N/A24%30.00 "Hg10 mi
2:53 PM75 °FSunny.5 mph24%30.02 "Hg10 mi
1:53 PM74 °FSunny.6 mph25%30.04 "Hg10 mi
12:53 PM70 °FSunny.8 mph28%30.07 "Hg10 mi
11:53 AM66 °FSunny.No wind29%30.08 "Hg10 mi
10:53 AM63 °FSunny.6 mph35%30.10 "Hg10 mi
9:53 AM59 °FSunny.10 mph46%30.09 "Hg10 mi
8:53 AM54 °FSunny.10 mph59%30.09 "Hg10 mi
7:53 AM50 °FSunny.7 mph74%30.09 "Hg10 mi
6:53 AM45 °FClear.6 mph86%30.08 "Hg10 mi
5:53 AM46 °FClear.10 mph83%30.06 "Hg10 mi
4:53 AM47 °FClear.6 mph80%30.05 "Hg10 mi
3:53 AM47 °FClear.8 mph80%30.04 "Hg10 mi
2:53 AM48 °FClear.10 mph77%30.03 "Hg10 mi
1:53 AM48 °FClear.9 mph80%30.04 "Hg10 mi
12:53 AM49 °FClear.15 mph77%30.03 "Hg10 mi
11:53 PM
Sat, Apr 25
50 °FClear.17 mph74%30.03 "Hg10 mi
10:53 PM52 °FClear.16 mph66%30.03 "Hg10 mi
9:53 PM53 °FClear.5 mph64%30.03 "Hg10 mi
8:53 PM55 °FClear.22 mph57%30.00 "Hg10 mi
7:53 PM58 °FSunny.20 mph51%29.96 "Hg10 mi
6:53 PM63 °FSunny.20 mph43%29.94 "Hg10 mi
Weather by CustomWeather, © 2015

See weather overviewHow to use our weather pages